Wind_Speed
1 1 1 1 2 1 1 2 2 2 2 3 3 3 3 2 2 2 2 2 2 3 3 3 2 2 2 1 1 1 1 1 0 0 0 0 1 1 1 1 1 1 1
2 1 1 1 1 1 1 1 2 2 2 2 3 3 3 2 2 1 1 1 2 2 2 2 1 1 1 1 1 1 0 0 1 1 1 2 2 2 2 2 2 2 2
3 2 2 2 2 2 2 1 1 2 1 1 1 2 2 2 2 2 1 1 1 1 1 2 1 1 1 2 1 1 2 2 2 2 2 2 3 3 3 4 4 4 4
4 4 3 3 3 2 2 2 1 2 1 1 1 1 1 2 2 2 1 1 1 1 2 2 2 2 2 2 3 3 3 3 3 3 3 3 4 4 4 5 5 5 5
4 4 4 4 4 4 4 3 2 2 3 2 2 2 2 2 2 2 2 2 2 2 3 3 3 3 4 4 4 4 5 5 5 5 5 6 6 6 6 6 6 7 6
4 4 4 5 5 5 5 5 4 4 4 4 4 4 4 4 4 4 4 3 3 4 4 5 5 5 5 5 5 5 6 6 6 6 7 7 7 8 8 8 9 8 8
6 6 6 6 6 7 6 6 6 6 6 6 5 6 6 5 6 7 6 6 6 6 7 7 7 7 6 7 7 7 7 7 8 8 8 8 9 9 10 10 10 10 10
8 8 8 8 8 9 8 8 7 8 8 8 8 7 7 7 8 9 9 9 9 9 9 9 9 9 8 9 9 9 9 9 10 10 10 10 10 10 11 11 11 12 12
9 8 9 10 10 10 10 10 10 10 9 9 10 10 9 9 9 10 10 10 11 11 11 11 11 11 11 11 11 11 11 11 11 11 11 12 12 12 12 13 13 14 14
9 10 11 11 11 11 11 11 11 11 11 11 11 12 12 11 11 11 12 13 13 13 13 13 14 13 13 13 13 13 14 14 14 14 14 14 14 14 15 15 16 16 16
10 11 11 11 12 12 13 13 13 13 13 13 13 13 13 14 14 14 14 14 14 15 15 15 15 14 14 14 14 15 16 16 16 16 16 16 16 17 17 18 18 18 19
11 12 12 12 13 13 14 13 13 14 14 14 14 14 14 15 16 15 15 15 16 16 16 17 17 16 17 17 17 17 17 18 18 18 18 19 19 19 20 20 20 21 21
12 12 12 13 13 14 14 14 14 14 14 15 16 16 16 16 17 17 17 17 17 18 18 18 19 19 19 20 19 20 19 19 20 20 21 21 22 22 23 23 23 24 24
12 12 12 13 14 14 14 15 15 16 16 16 17 17 17 18 18 18 18 18 18 19 19 20 20 21 21 21 21 21 21 22 22 22 23 23 23 24 24 25 26 27 27
12 13 13 14 14 14 15 15 16 16 16 16 18 18 18 19 19 19 19 19 20 20 21 22 22 22 21 21 22 22 23 23 23 24 24 25 25 25 26 26 27 28 29
13 13 14 15 15 14 15 15 15 16 16 17 18 18 18 19 19 19 19 20 20 21 21 22 23 23 24 23 23 24 25 25 25 25 26 27 28 28 29 29 31 31 32
13 14 15 15 15 15 15 15 15 16 17 17 18 18 18 19 19 19 20 21 21 22 22 23 23 23 24 24 24 25 26 26 27 27 28 28 30 31 31 31 31 32 33
14 14 14 14 14 15 15 15 16 16 17 17 18 18 18 19 20 21 21 21 22 23 23 23 23 25 25 25 26 27 27 27 28 28 28 29 31 32 31 32 33 33 34
15 14 14 14 14 15 15 16 16 17 17 18 18 18 19 19 20 21 21 22 23 24 24 24 24 24 25 26 27 27 28 28 29 30 30 31 32 32 32 33 34 35 36
15 15 15 15 15 15 15 16 17 17 17 17 18 19 19 19 20 22 22 23 24 24 25 25 25 26 26 27 26 27 27 28 29 30 31 31 32 32 32 33 34 35 35
14 14 15 15 15 15 16 16 17 17 17 17 18 19 19 20 21 23 24 25 25 25 26 26 26 27 27 27 28 28 28 29 30 31 31 31 31 32 32 32 32 32 33
14 14 15 15 15 16 16 17 18 18 18 19 19 20 21 21 22 23 23 24 25 25 26 27 27 28 28 28 28 29 29 29 30 30 31 31 31 32 32 33 33 34 34
15 16 15 15 16 16 17 18 19 18 18 19 20 21 22 23 23 24 25 25 26 26 27 27 28 28 28 27 28 29 29 30 31 31 31 31 31 32 33 34 34 35 35
15 15 15 15 15 16 17 17 18 18 19 20 21 22 23 24 25 25 26 27 27 27 28 28 28 28 28 28 28 29 30 30 31 32 33 33 33 34 34 34 34 34 35
16 16 16 16 16 17 17 18 19 19 21 22 23 23 24 25 26 26 27 28 28 29 29 28 28 29 29 29 29 30 30 31 32 33 34 34 34 34 34 34 34 34 35
17 17 17 17 17 18 18 19 20 21 22 23 24 25 26 26 27 27 28 28 29 29 29 29 29 30 30 31 32 32 33 33 34 34 34 35 34 34 34 34 34 34 35
Wind_Direction
311 350 6 352 13 26 39 51 51 52 59 65 65 64 65 69 75 89 83 81 83 74 68 65 70 59 54 47 56 69 76 110 152 175 321 296 297 278 269 290 303 320 306
313 313 323 336 356 7 349 15 25 36 44 56 59 55 54 54 42 33 42 70 78 65 51 45 53 39 16 11 9 11 351 334 279 279 296 285 280 286 282 288 286 290 293
300 305 308 310 328 332 334 333 358 14 14 28 30 31 39 33 15 3 2 5 13 2 358 349 348 345 327 316 324 327 317 303 289 279 286 289 283 279 278 280 282 283 285
290 295 286 292 306 305 308 312 316 323 321 314 333 355 8 6 3 3 338 320 312 319 321 323 328 329 314 302 302 309 307 303 294 286 281 279 282 282 280 276 277 279 282
291 290 280 291 304 292 286 289 286 298 297 281 279 283 305 315 322 336 333 312 304 308 310 305 308 314 315 304 301 298 298 297 293 289 282 278 278 278 284 282 278 276 278
288 291 289 289 297 296 289 287 279 279 285 286 274 273 285 293 295 302 309 307 303 299 298 297 296 299 304 304 299 296 295 292 289 287 285 283 281 280 281 282 278 276 277
280 283 291 292 294 294 284 281 282 284 287 285 280 275 277 285 285 284 289 291 293 292 292 293 291 289 294 299 295 294 290 290 288 286 284 284 284 282 281 281 279 276 276
278 278 280 285 288 291 287 278 278 281 280 280 280 280 281 283 280 281 282 285 285 286 289 289 285 286 293 295 295 290 286 285 286 285 283 283 284 285 282 279 279 277 276
277 276 279 283 285 285 285 282 277 278 279 280 280 280 283 286 284 284 281 279 282 286 288 289 286 282 285 287 289 287 284 283 282 283 283 281 280 280 281 281 279 278 276
274 274 277 280 282 281 280 280 278 277 277 279 281 284 285 288 289 287 284 281 280 284 287 288 287 286 285 285 285 282 280 280 280 280 280 281 280 280 280 280 279 278 276
271 275 275 277 278 280 280 279 279 280 281 280 280 283 287 289 287 287 286 283 282 282 284 288 288 284 284 284 284 283 281 279 279 279 278 278 279 279 279 279 278 277 276
275 275 275 278 280 283 283 279 279 282 283 281 280 281 283 285 285 286 286 284 283 283 284 286 286 285 283 281 281 282 283 281 279 278 278 277 277 278 278 278 277 276 275
281 279 276 277 282 283 282 277 278 282 284 283 281 282 281 281 283 285 285 284 284 284 283 284 285 285 286 283 281 281 281 281 280 279 279 278 277 277 278 277 277 275 274
285 284 282 283 285 284 279 277 277 279 282 284 285 284 281 280 281 283 284 284 284 282 283 285 285 284 286 284 281 279 280 281 280 279 279 278 278 278 279 278 277 276 275
286 287 286 285 286 286 281 280 280 280 281 284 286 285 282 283 282 282 283 283 284 284 284 285 285 285 285 284 282 281 281 279 279 278 278 278 278 279 280 280 279 276 277
291 287 286 285 286 287 284 282 282 280 281 283 286 287 286 286 285 284 285 286 286 285 286 285 285 286 285 285 284 283 283 279 279 279 278 278 278 278 280 279 279 278 277
297 293 289 285 286 287 285 286 285 282 283 284 286 287 286 286 288 290 288 287 289 291 291 289 285 286 284 284 284 284 285 281 279 280 280 279 280 280 279 279 279 279 279
300 297 293 289 287 288 286 287 286 284 286 289 288 287 286 286 287 290 290 290 291 292 292 293 292 291 289 287 286 286 286 285 282 283 284 282 282 282 281 279 279 278 279
303 298 297 293 290 290 290 289 287 287 289 290 292 292 291 290 290 292 294 293 293 294 294 294 295 296 294 293 292 291 290 288 285 285 284 283 284 282 282 281 281 280 278
308 300 298 296 296 293 293 293 292 291 292 291 291 293 294 294 294 294 293 293 295 296 297 297 296 296 295 295 294 292 291 290 289 288 287 285 285 285 285 284 283 282 281
313 307 301 297 297 297 298 299 297 295 293 292 290 291 294 295 296 297 297 296 295 296 297 298 297 296 295 294 294 293 292 291 291 291 290 289 289 288 287 286 286 285 284
316 314 307 303 299 298 299 300 298 297 296 294 291 291 293 295 298 299 300 299 298 298 299 299 298 296 295 294 293 294 293 292 291 292 293 293 292 291 290 289 286 285 284
316 316 312 309 305 302 301 299 298 298 297 296 296 295 296 296 298 299 300 300 299 299 299 298 298 297 296 295 294 294 293 293 292 293 294 294 293 292 291 289 287 285 284
316 317 316 314 310 307 304 302 302 301 299 297 297 297 298 297 300 301 301 301 300 300 299 299 299 298 297 296 296 296 294 294 293 294 295 295 294 292 291 290 288 287 285
314 315 318 315 311 308 308 307 305 305 302 300 298 298 298 299 299 300 300 300 300 300 299 299 299 300 299 298 298 298 297 295 295 295 295 296 295 294 293 292 290 287 286
313 315 316 316 311 309 310 309 307 307 305 302 301 300 300 300 300 301 301 301 301 301 300 300 300 300 300 299 298 298 297 296 296 296 296 295 294 293 293 292 291 290 288
Height
5909 5909 5910 5910 5910 5910 5910 5910 5910 5910 5910 5909 5909 5909 5909 5909 5909 5909 5909 5909 5909 5910 5910 5910 5909 5909 5910 5910 5910 5910 5910 5910 5910 5910 5910 5910 5910 5910 5910 5910 5910 5910 5910
5909 5910 5910 5910 5910 5910 5910 5910 5910 5910 5910 5910 5910 5910 5910 5910 5909 5909 5909 5910 5910 5910 5910 5910 5910 5910 5910 5910 5910 5910 5910 5910 5910 5910 5910 5910 5910 5910 5910 5910 5910 5910 5909
5909 5910 5910 5910 5910 5911 5911 5911 5911 5911 5910 5910 5910 5910 5910 5910 5910 5910 5910 5910 5910 5910 5910 5910 5910 5910 5910 5910 5910 5910 5910 5910 5910 5909 5909 5909 5909 5909 5909 5909 5909 5909 5909
5909 5910 5910 5910 5910 5911 5911 5911 5911 5911 5911 5911 5911 5911 5911 5911 5910 5910 5910 5910 5910 5910 5910 5910 5910 5909 5909 5909 5909 5909 5909 5909 5909 5909 5909 5908 5908 5908 5908 5908 5908 5908 5908
5909 5909 5910 5910 5910 5910 5910 5911 5911 5911 5910 5910 5910 5910 5911 5911 5910 5910 5910 5910 5910 5910 5910 5909 5909 5909 5909 5908 5908 5908 5908 5908 5908 5908 5908 5907 5907 5907 5907 5907 5906 5906 5906
5909 5909 5909 5910 5910 5910 5910 5910 5910 5910 5910 5910 5910 5910 5910 5910 5910 5909 5909 5909 5909 5909 5909 5909 5908 5908 5908 5907 5907 5907 5907 5907 5906 5906 5906 5906 5905 5905 5905 5905 5904 5904 5904
5908 5908 5909 5909 5909 5909 5909 5909 5909 5909 5909 5909 5908 5908 5909 5909 5909 5908 5908 5908 5908 5908 5908 5907 5907 5907 5906 5906 5906 5905 5905 5905 5904 5904 5904 5904 5903 5903 5903 5902 5902 5902 5902
5907 5907 5908 5908 5908 5908 5907 5907 5908 5907 5907 5907 5907 5907 5907 5908 5907 5907 5907 5906 5906 5906 5906 5905 5905 5905 5904 5904 5904 5903 5903 5903 5902 5902 5902 5901 5901 5901 5900 5900 5899 5899 5899
5905 5906 5906 5906 5906 5906 5906 5906 5906 5906 5906 5906 5906 5906 5905 5905 5905 5905 5904 5904 5904 5903 5902 5902 5902 5901 5901 5901 5901 5900 5900 5900 5899 5899 5899 5898 5898 5898 5897 5897 5896 5896 5895
5904 5904 5904 5904 5904 5904 5904 5904 5904 5904 5904 5904 5903 5903 5903 5903 5902 5902 5902 5901 5900 5900 5900 5899 5899 5899 5898 5898 5898 5897 5897 5896 5896 5896 5895 5895 5894 5894 5894 5893 5893 5892 5892
5901 5901 5901 5901 5901 5901 5901 5901 5901 5901 5901 5901 5901 5900 5900 5900 5899 5899 5899 5899 5898 5898 5897 5897 5896 5895 5895 5894 5894 5893 5893 5892 5892 5891 5891 5891 5890 5890 5889 5889 5888 5887 5887
5899 5899 5898 5898 5898 5898 5898 5898 5898 5898 5898 5897 5897 5897 5897 5897 5896 5896 5895 5895 5895 5894 5893 5893 5892 5891 5890 5890 5889 5889 5889 5888 5887 5887 5886 5885 5885 5885 5884 5883 5883 5882 5882
5896 5896 5895 5895 5895 5895 5894 5895 5895 5895 5894 5894 5893 5893 5893 5893 5893 5892 5892 5891 5891 5890 5889 5889 5888 5887 5886 5885 5884 5884 5883 5883 5882 5882 5881 5880 5879 5879 5878 5878 5877 5876 5876
5892 5892 5892 5892 5891 5891 5890 5891 5891 5891 5890 5890 5889 5889 5889 5888 5888 5888 5887 5887 5886 5886 5885 5884 5883 5882 5881 5879 5879 5879 5879 5878 5877 5876 5875 5874 5873 5873 5872 5871 5870 5869 5869
5889 5889 5889 5889 5888 5888 5887 5888 5888 5887 5887 5886 5885 5885 5884 5884 5883 5883 5882 5882 5882 5881 5880 5879 5878 5876 5874 5874 5873 5872 5872 5872 5871 5870 5869 5868 5867 5866 5865 5864 5863 5862 5861
5886 5886 5886 5886 5885 5885 5884 5884 5884 5883 5883 5882 5881 5881 5880 5879 5879 5878 5878 5877 5876 5875 5875 5873 5872 5870 5869 5868 5867 5867 5866 5864 5863 5863 5862 5861 5860 5859 5858 5857 5855 5854 5852
5884 5883 5882 5882 5881 5881 5880 5880 5880 5879 5879 5878 5878 5877 5876 5876 5875 5874 5873 5872 5871 5870 5868 5867 5865 5864 5863 5862 5861 5860 5859 5857 5856 5855 5854 5853 5852 5850 5849 5848 5846 5845 5844
5880 5879 5878 5878 5877 5877 5877 5876 5876 5876 5875 5874 5874 5873 5872 5871 5870 5869 5868 5867 5865 5864 5863 5861 5859 5858 5857 5856 5854 5852 5851 5850 5849 5848 5846 5845 5843 5842 5840 5839 5837 5836 5834
5877 5876 5875 5874 5874 5873 5873 5873 5872 5872 5871 5870 5869 5868 5867 5867 5866 5864 5863 5862 5860 5859 5857 5856 5855 5853 5851 5849 5847 5845 5844 5843 5841 5840 5838 5836 5835 5833 5831 5829 5828 5826 5824
5874 5872 5871 5870 5870 5870 5869 5869 5868 5867 5867 5866 5865 5864 5863 5862 5861 5860 5858 5857 5855 5853 5852 5850 5849 5847 5845 5843 5841 5839 5837 5835 5833 5831 5829 5827 5826 5824 5822 5820 5818 5816 5814
5870 5869 5868 5867 5866 5866 5865 5865 5864 5863 5862 5862 5861 5860 5858 5857 5856 5855 5853 5851 5849 5848 5846 5844 5842 5840 5838 5836 5834 5832 5830 5828 5826 5823 5821 5819 5817 5815 5812 5810 5808 5806 5804
5868 5866 5864 5863 5862 5862 5861 5861 5860 5859 5858 5857 5856 5855 5854 5852 5851 5849 5847 5845 5843 5841 5839 5837 5835 5833 5831 5828 5826 5824 5822 5820 5818 5816 5813 5811 5808 5805 5803 5800 5798 5796 5794
5865 5863 5862 5860 5859 5858 5858 5857 5856 5855 5854 5853 5851 5850 5848 5847 5845 5843 5841 5839 5837 5834 5832 5830 5828 5825 5823 5821 5818 5816 5813 5811 5809 5806 5804 5801 5799 5796 5793 5790 5788 5786 5783
5863 5861 5859 5858 5856 5855 5854 5852 5851 5850 5849 5848 5846 5844 5843 5841 5839 5837 5835 5832 5830 5828 5825 5823 5821 5818 5815 5813 5810 5808 5805 5803 5800 5797 5794 5792 5789 5786 5783 5780 5777 5775 5772
5860 5858 5857 5855 5853 5852 5851 5849 5848 5846 5845 5843 5841 5839 5837 5835 5833 5831 5828 5826 5823 5821 5818 5815 5813 5810 5808 5805 5802 5799 5797 5794 5791 5788 5785 5782 5779 5776 5773 5770 5767 5764 5761
5857 5856 5854 5852 5851 5849 5847 5846 5844 5842 5840 5838 5836 5834 5832 5829 5826 5824 5821 5819 5816 5813 5811 5808 5806 5803 5800 5797 5793 5791 5787 5784 5781 5778 5775 5771 5768 5765 5763 5759 5756 5753 5751